Zeit;wasserstand;wasserstand_status;abfluss;abfluss_status
1998-09-01 00:00:00;387.0;0;8.5664;0
1998-09-02 00:00:00;387.0;0;7.2871;0
1998-09-03 00:00:00;384.0;0;7.0492;1
1998-09-04 00:00:00;396.0;0;4.5678;1
1998-09-05 00:00:00;396.0;0;7.1547;1
1998-09-06 00:00:00;396.0;0;7.0312;1
1998-09-07 00:00:00;393.0;0;5.986;1
1998-09-08 00:00:00;396.0;0;4.5011;1
1998-09-09 00:00:00;392.0;0;4.0643;1
1998-09-10 00:00:00;415.0;0;6.2548;1
1998-09-11 00:00:00;426.0;0;7.7021;1
1998-09-12 00:00:00;398.0;0;15.1236;1
1998-09-13 00:00:00;401.0;0;7.6084;1
1998-09-14 00:00:00;425.0;0;5.5146;1
1998-09-15 00:00:00;456.0;0;3.7765;1
1998-09-16 00:00:00;457.0;0;9.0742;1
1998-09-17 00:00:00;464.0;0;24.1719;1
1998-09-18 00:00:00;420.0;0;25.6105;1
1998-09-19 00:00:00;399.0;0;19.6351;1
1998-09-20 00:00:00;385.0;0;13.2611;1
1998-09-21 00:00:00;381.0;0;10.9237;1
1998-09-22 00:00:00;382.0;0;10.0949;1
1998-09-23 00:00:00;382.0;0;9.6728;1
1998-09-24 00:00:00;381.0;0;9.3839;1
1998-09-25 00:00:00;382.0;0;7.7944;1
1998-09-26 00:00:00;389.0;0;7.8637;1
1998-09-27 00:00:00;395.0;0;7.6546;1
1998-09-28 00:00:00;408.0;0;6.4631;1
1998-09-29 00:00:00;419.0;0;7.5426;1
1998-09-30 00:00:00;418.0;0;11.8053;1
1998-10-01 00:00:00;408.0;0;9.2431;1
1998-10-02 00:00:00;406.0;0;9.1611;1
1998-10-03 00:00:00;414.0;0;5.465;1
1998-10-04 00:00:00;422.0;0;9.565;1
1998-10-05 00:00:00;418.0;0;8.4185;1
1998-10-06 00:00:00;406.0;0;10.8561;1
1998-10-07 00:00:00;388.0;0;7.2036;1
1998-10-08 00:00:00;400.0;0;5.395;1
1998-10-09 00:00:00;412.0;0;3.0407;1
1998-10-10 00:00:00;440.0;0;0.991;1
1998-10-11 00:00:00;466.0;0;2.3083;1
1998-10-12 00:00:00;464.0;0;2.2181;1
1998-10-13 00:00:00;443.0;0;9.0374;1
1998-10-14 00:00:00;466.0;0;2.4972;1
1998-10-15 00:00:00;506.0;0;4.7257;1
1998-10-16 00:00:00;446.0;0;;1
1998-10-17 00:00:00;444.0;0;;1
1998-10-18 00:00:00;471.0;0;;1
1998-10-19 00:00:00;435.0;0;;1
1998-10-20 00:00:00;436.0;0;;1
1998-10-21 00:00:00;423.0;0;;1
1998-10-22 00:00:00;463.0;0;19.5843;1
1998-10-23 00:00:00;477.0;0;20.9552;1
1998-10-24 00:00:00;449.0;0;25.5072;1
1998-10-25 00:00:00;493.0;0;6.8544;1
1998-10-26 00:00:00;566.0;0;43.3164;1
1998-10-27 00:00:00;498.0;0;14.8506;1
1998-10-28 00:00:00;591.0;0;10.6689;1
1998-10-29 00:00:00;597.0;0;16.691;1
1998-10-30 00:00:00;572.0;0;57.2834;1
1998-10-31 00:00:00;533.0;0;60.2688;1
1998-11-01 00:00:00;488.0;0;52.428;1
1998-11-02 00:00:00;467.0;0;39.8276;1
1998-11-03 00:00:00;429.0;0;35.4361;1
1998-11-04 00:00:00;450.0;0;46.8535;1
1998-11-05 00:00:00;475.0;0;34.203;1
1998-11-06 00:00:00;522.0;0;47.3022;1
1998-11-07 00:00:00;474.0;0;51.0178;1
1998-11-08 00:00:00;441.0;0;35.2163;1
1998-11-09 00:00:00;426.0;0;26.013;1
1998-11-10 00:00:00;459.0;0;20.7433;1
1998-11-11 00:00:00;487.0;0;27.4591;1
1998-11-12 00:00:00;446.0;0;28.2339;1
1998-11-13 00:00:00;439.0;0;27.9452;1
1998-11-14 00:00:00;441.0;0;24.9161;1
1998-11-15 00:00:00;437.0;0;27.5173;1
1998-11-16 00:00:00;413.0;0;24.4412;1
1998-11-17 00:00:00;397.0;0;18.7884;1
1998-11-18 00:00:00;391.0;0;17.7424;1
1998-11-19 00:00:00;381.0;0;15.9683;1
1998-11-20 00:00:00;367.0;0;16.0027;1
1998-11-21 00:00:00;363.0;0;11.2988;1
1998-11-22 00:00:00;374.0;0;12.1247;1
1998-11-23 00:00:00;379.0;0;9.6372;1
1998-11-24 00:00:00;373.0;0;9.6345;1
1998-11-25 00:00:00;388.0;0;7.7266;1
1998-11-26 00:00:00;381.0;0;9.2901;1
1998-11-27 00:00:00;412.0;0;6.6125;1
1998-11-28 00:00:00;380.0;0;17.7766;1
1998-11-29 00:00:00;390.0;0;11.7335;1
1998-11-30 00:00:00;374.0;0;15.2211;1
1998-12-01 00:00:00;350.0;0;14.2077;1
1998-12-02 00:00:00;365.0;0;9.7476;1
1998-12-03 00:00:00;397.0;0;9.5932;1
1998-12-04 00:00:00;414.0;0;13.4724;1
1998-12-05 00:00:00;396.0;0;8.5539;1
1998-12-06 00:00:00;377.0;0;10.1855;1
1998-12-07 00:00:00;388.0;0;10.4249;1
1998-12-10 00:00:00;393.0;0;9.9311;1
1998-12-11 00:00:00;397.0;0;8.9475;1
1998-12-12 00:00:00;393.0;0;6.8973;1
1998-12-13 00:00:00;429.0;0;-0.0032;1
1998-12-14 00:00:00;436.0;0;23.4384;1
1998-12-15 00:00:00;457.0;0;14.7271;1
1998-12-16 00:00:00;446.0;0;18.2493;1
1998-12-17 00:00:00;426.0;0;14.2108;1
1998-12-18 00:00:00;437.0;0;12.058;1
1998-12-19 00:00:00;426.0;0;13.6022;1
1998-12-20 00:00:00;425.0;0;17.4846;1
1998-12-21 00:00:00;400.0;0;16.9266;1
1998-12-22 00:00:00;377.0;0;14.2459;1
1998-12-23 00:00:00;378.0;0;8.2458;1
1998-12-24 00:00:00;417.0;0;14.5477;1
1998-12-25 00:00:00;456.0;0;11.0985;1
1998-12-26 00:00:00;529.0;0;29.0562;1
1998-12-27 00:00:00;529.0;0;36.3056;1
1998-12-28 00:00:00;484.0;0;32.0303;1
1998-12-29 00:00:00;461.0;0;27.8548;1
1998-12-30 00:00:00;388.0;0;35.5841;1
1998-12-31 00:00:00;393.0;0;16.2519;1
1999-01-01 00:00:00;377.0;0;19.4561;1
1999-01-02 00:00:00;370.0;0;13.9848;1
1999-01-03 00:00:00;377.0;0;12.5307;1
1999-01-04 00:00:00;393.0;0;8.703;1
1999-01-05 00:00:00;431.0;0;18.5828;1
1999-01-06 00:00:00;460.0;0;26.0429;1
1999-01-07 00:00:00;446.0;0;24.648;1
1999-01-08 00:00:00;428.0;0;25.3122;1
1999-01-09 00:00:00;431.0;0;26.0192;1
1999-01-10 00:00:00;407.0;0;20.2877;1
1999-01-11 00:00:00;389.0;0;19.4052;1
1999-01-12 00:00:00;391.0;0;12.8064;1
1999-01-13 00:00:00;421.0;0;8.3874;1
1999-01-14 00:00:00;456.0;0;5.8594;1
1999-01-15 00:00:00;523.0;0;24.0579;1
1999-01-16 00:00:00;526.0;0;31.844;1
1999-01-17 00:00:00;482.0;0;41.1575;1
1999-01-18 00:00:00;447.0;0;26.7499;1
1999-01-19 00:00:00;434.0;0;18.7025;1
1999-01-20 00:00:00;445.0;0;20.3918;1
1999-01-21 00:00:00;436.0;0;33.8935;1
1999-01-22 00:00:00;439.0;0;32.6819;1
1999-01-23 00:00:00;423.0;0;22.2217;1
1999-01-24 00:00:00;429.0;0;13.9682;1
1999-01-25 00:00:00;486.0;0;15.5419;1
1999-01-26 00:00:00;477.0;0;25.0837;1
1999-01-27 00:00:00;453.0;0;29.6214;1
1999-01-28 00:00:00;421.0;0;31.2225;1
1999-01-29 00:00:00;393.0;0;23.1503;1
1999-01-30 00:00:00;376.0;0;17.4431;1
1999-01-31 00:00:00;378.0;0;14.026;1
1999-02-01 00:00:00;377.0;0;15.1838;1
1999-02-02 00:00:00;381.0;0;15.6964;1
1999-02-03 00:00:00;386.0;0;14.8618;1
1999-02-04 00:00:00;419.0;0;2.5531;1
1999-02-05 00:00:00;510.0;0;5.1787;1
1999-02-06 00:00:00;496.0;0;30.275;1
1999-02-07 00:00:00;414.0;0;12.6609;1
1999-02-08 00:00:00;428.0;0;15.6187;1
1999-02-09 00:00:00;391.0;0;12.7139;1
1999-02-10 00:00:00;422.0;0;8.0639;1
1999-02-11 00:00:00;400.0;0;13.8474;1
1999-02-12 00:00:00;386.0;0;13.2103;1
1999-02-13 00:00:00;399.0;0;13.2782;1
1999-02-14 00:00:00;386.0;0;11.4056;1
1999-02-15 00:00:00;387.0;0;8.322;1
1999-02-16 00:00:00;469.0;0;15.4624;1
1999-02-17 00:00:00;505.0;0;28.9326;1
1999-02-18 00:00:00;442.0;0;36.0727;1
1999-02-19 00:00:00;412.0;0;23.7647;1
1999-02-20 00:00:00;439.0;0;25.2639;1
1999-02-21 00:00:00;436.0;0;19.6877;1
1999-02-22 00:00:00;482.0;0;19.8803;1
1999-02-23 00:00:00;470.0;0;28.4424;1
1999-02-24 00:00:00;415.0;0;25.2138;1
1999-02-25 00:00:00;405.0;0;18.9053;1
1999-02-26 00:00:00;439.0;0;13.1808;1
1999-02-27 00:00:00;438.0;0;23.9619;1
1999-02-28 00:00:00;445.0;0;21.734;1
1999-03-01 00:00:00;452.0;0;26.5652;1
1999-03-02 00:00:00;451.0;0;40.541;1
1999-03-03 00:00:00;476.0;0;47.4257;1
1999-03-04 00:00:00;468.0;0;48.2783;1
1999-03-05 00:00:00;435.0;0;38.5732;1
1999-03-06 00:00:00;455.0;0;44.4971;1
1999-03-07 00:00:00;496.0;0;51.5183;1
1999-03-08 00:00:00;454.0;0;44.2225;1
1999-03-09 00:00:00;406.0;0;32.8281;1
1999-03-10 00:00:00;404.0;0;22.0787;1
1999-03-11 00:00:00;394.0;0;18.0531;1
1999-03-12 00:00:00;379.0;0;20.1531;1
1999-03-13 00:00:00;402.0;0;13.4918;1
1999-03-14 00:00:00;397.0;0;16.8039;1
1999-03-15 00:00:00;384.0;0;16.7555;1
1999-03-16 00:00:00;390.0;0;8.0904;1
1999-03-17 00:00:00;468.0;0;0.0;1
1999-03-18 00:00:00;506.0;0;0.0;1
1999-03-19 00:00:00;532.0;0;0.0;1
1999-03-20 00:00:00;452.0;0;35.9074;1
1999-03-21 00:00:00;382.0;0;15.685;1
1999-03-22 00:00:00;388.0;0;11.0142;1
1999-03-23 00:00:00;387.0;0;12.7322;1
1999-03-24 00:00:00;382.0;0;11.3891;1
1999-03-25 00:00:00;384.0;0;13.1441;1
1999-03-26 00:00:00;391.0;0;10.9795;1
1999-03-27 00:00:00;401.0;0;17.8103;1
1999-03-28 00:00:00;396.0;0;20.5852;1
1999-03-29 00:00:00;388.0;0;16.4366;1
1999-03-30 00:00:00;388.0;0;14.1243;1
1999-03-31 00:00:00;381.0;0;13.5495;1
1999-04-01 00:00:00;360.0;0;13.6754;1
1999-04-02 00:00:00;377.0;0;10.2266;1
1999-04-03 00:00:00;384.0;0;9.9005;1
1999-04-04 00:00:00;390.0;0;11.6516;1
1999-04-05 00:00:00;371.0;0;9.3345;1
1999-04-06 00:00:00;392.0;0;6.4646;1
1999-04-07 00:00:00;419.0;0;7.5046;1
1999-04-08 00:00:00;404.0;0;12.91;1
1999-04-09 00:00:00;389.0;0;7.2002;1
1999-04-10 00:00:00;416.0;0;4.3419;1
1999-04-11 00:00:00;436.0;0;6.0747;1
1999-04-12 00:00:00;408.0;0;14.2504;1
1999-04-13 00:00:00;431.0;0;5.2397;1
1999-04-14 00:00:00;403.0;0;24.0191;1
1999-04-15 00:00:00;394.0;0;25.4523;1
1999-04-16 00:00:00;390.0;0;19.0576;1
1999-04-17 00:00:00;379.0;0;14.5888;1
1999-04-18 00:00:00;383.0;0;9.6311;1
1999-04-19 00:00:00;388.0;0;12.4618;1
1999-04-20 00:00:00;370.0;0;10.4745;1
1999-04-21 00:00:00;362.0;0;8.8809;1
1999-04-22 00:00:00;375.0;0;6.2321;1
1999-04-23 00:00:00;378.0;0;8.5791;1
1999-04-24 00:00:00;383.0;0;8.863;1
1999-04-25 00:00:00;382.0;0;9.0365;1
1999-04-26 00:00:00;370.0;0;10.16;1
1999-04-27 00:00:00;361.0;0;8.6543;1
1999-04-28 00:00:00;356.0;0;6.1737;1
1999-04-29 00:00:00;370.0;0;7.3479;1
1999-04-30 00:00:00;378.0;0;5.8143;1
1999-05-01 00:00:00;391.0;0;7.7292;1
1999-05-02 00:00:00;387.0;0;8.0127;1
1999-05-03 00:00:00;380.0;0;8.4383;1
1999-05-04 00:00:00;372.0;0;8.7062;1
1999-05-05 00:00:00;345.0;0;8.37;1
1999-05-06 00:00:00;324.0;0;4.621;1
1999-05-07 00:00:00;355.0;0;2.2015;1
1999-05-08 00:00:00;390.0;0;2.0668;1
1999-05-09 00:00:00;426.0;0;2.2995;1
1999-05-10 00:00:00;416.0;0;9.8137;1
1999-05-11 00:00:00;408.0;0;8.6722;1
1999-05-12 00:00:00;390.0;0;7.0944;1
1999-05-13 00:00:00;402.0;0;7.9844;1
1999-05-14 00:00:00;383.0;0;10.3417;1
1999-05-15 00:00:00;357.0;0;9.0556;1
1999-05-16 00:00:00;361.0;0;4.7752;1
1999-05-17 00:00:00;384.0;0;6.9797;1
1999-05-18 00:00:00;382.0;0;6.9979;1
1999-05-19 00:00:00;378.0;0;4.9831;1
1999-05-20 00:00:00;355.0;0;5.6759;1
1999-05-21 00:00:00;382.0;0;3.2111;1
1999-05-22 00:00:00;404.0;0;2.2041;1
1999-05-23 00:00:00;420.0;0;2.5451;1
1999-05-24 00:00:00;403.0;0;6.3557;1
1999-05-25 00:00:00;398.0;0;5.2833;1
1999-05-26 00:00:00;386.0;0;6.9489;1
1999-05-27 00:00:00;399.0;0;5.2462;1
1999-05-28 00:00:00;399.0;0;5.7428;1
1999-05-29 00:00:00;402.0;0;6.2289;1
1999-05-30 00:00:00;396.0;0;6.1343;1
1999-05-31 00:00:00;391.0;0;6.036;1
1999-06-01 00:00:00;390.0;0;4.7722;1
1999-06-02 00:00:00;391.0;0;4.8302;1
1999-06-03 00:00:00;399.0;0;4.8017;1
1999-06-04 00:00:00;393.0;0;1.41;1
1999-06-05 00:00:00;394.0;0;6.0999;1
1999-06-06 00:00:00;370.0;0;5.3509;1
1999-06-07 00:00:00;372.0;0;7.187;1
1999-06-08 00:00:00;347.0;0;5.2762;1
1999-06-09 00:00:00;398.0;0;0.0;1
1999-06-10 00:00:00;421.0;0;6.3717;1
1999-06-11 00:00:00;369.0;0;11.032;1
1999-06-12 00:00:00;375.0;0;11.7775;1
1999-06-13 00:00:00;349.0;0;9.6206;1
1999-06-14 00:00:00;343.0;0;6.5219;1
1999-06-15 00:00:00;348.0;0;6.7716;1
1999-06-16 00:00:00;341.0;0;7.4713;1
1999-06-17 00:00:00;340.0;0;4.8609;1
1999-06-18 00:00:00;343.0;0;4.1599;1
1999-06-19 00:00:00;347.0;0;2.9078;1
1999-06-20 00:00:00;349.0;0;3.9031;1
1999-06-21 00:00:00;380.0;0;4.9475;1
1999-06-22 00:00:00;367.0;0;7.4505;1
1999-06-23 00:00:00;350.0;0;7.1332;1
1999-06-24 00:00:00;377.0;0;3.4818;1
1999-06-25 00:00:00;388.0;0;5.2506;1
1999-06-26 00:00:00;392.0;0;4.7128;1
1999-06-27 00:00:00;395.0;0;6.2828;1
1999-06-28 00:00:00;403.0;0;3.7619;1
1999-06-29 00:00:00;396.0;0;5.3668;1
1999-06-30 00:00:00;387.0;0;7.1836;1
1999-07-01 00:00:00;386.0;0;4.8699;1
1999-07-02 00:00:00;401.0;0;3.0969;1
1999-07-03 00:00:00;403.0;0;3.8836;1
1999-07-04 00:00:00;416.0;0;4.2433;1
1999-07-05 00:00:00;407.0;0;4.5991;1
1999-07-06 00:00:00;416.0;0;2.0512;1
1999-07-07 00:00:00;408.0;0;3.3187;1
1999-07-08 00:00:00;404.0;0;6.8189;1
1999-07-09 00:00:00;397.0;0;4.2377;1
1999-07-10 00:00:00;409.0;0;5.186;1
1999-07-11 00:00:00;412.0;0;4.7093;1
1999-07-12 00:00:00;407.0;0;2.865;1
1999-07-13 00:00:00;421.0;0;3.8656;1
1999-07-14 00:00:00;424.0;0;2.6311;1
1999-07-15 00:00:00;424.0;0;6.5681;1
1999-07-16 00:00:00;418.0;0;2.1106;1
1999-07-17 00:00:00;419.0;0;4.8362;1
1999-07-18 00:00:00;413.0;0;5.0922;1
1999-07-19 00:00:00;416.0;0;2.4032;1
1999-07-20 00:00:00;419.0;0;4.3349;1
1999-07-21 00:00:00;431.0;0;0.2225;1
1999-07-22 00:00:00;450.0;0;0.08;1
1999-07-23 00:00:00;418.0;0;2.5917;1
1999-07-24 00:00:00;403.0;0;3.2141;1
1999-07-25 00:00:00;406.0;0;5.1915;1
1999-07-26 00:00:00;394.0;0;5.0172;1
1999-07-27 00:00:00;396.0;0;0.6342;1
1999-07-28 00:00:00;417.0;0;3.9651;1
1999-07-29 00:00:00;414.0;0;3.6676;1
1999-07-30 00:00:00;414.0;0;3.6975;1
1999-07-31 00:00:00;410.0;0;2.5834;1
1999-08-01 00:00:00;407.0;0;2.6391;1
1999-08-02 00:00:00;405.0;0;2.5821;1
1999-08-03 00:00:00;405.0;0;2.1367;1
1999-08-04 00:00:00;405.0;0;2.7595;1
1999-08-05 00:00:00;392.0;0;7.359;1
1999-08-06 00:00:00;357.0;0;5.1676;1
1999-08-07 00:00:00;363.0;0;3.43;1
1999-08-08 00:00:00;370.0;0;2.1042;1
1999-08-09 00:00:00;363.0;0;5.877;1
1999-08-10 00:00:00;355.0;0;4.0029;1
1999-08-11 00:00:00;353.0;0;1.0085;1
1999-08-12 00:00:00;363.0;0;3.5769;1
1999-08-13 00:00:00;361.0;0;1.6513;1
1999-08-14 00:00:00;369.0;0;2.9519;1
1999-08-15 00:00:00;363.0;0;4.4565;1
1999-08-16 00:00:00;352.0;0;1.7447;1
1999-08-17 00:00:00;364.0;0;3.3383;1
1999-08-18 00:00:00;382.0;0;-0.1023;1
1999-08-19 00:00:00;396.0;0;2.6411;1
1999-08-20 00:00:00;395.0;0;1.7133;1
1999-08-21 00:00:00;383.0;0;5.0556;1
1999-08-22 00:00:00;366.0;0;6.0974;1
1999-08-23 00:00:00;356.0;0;5.0573;1
1999-08-24 00:00:00;351.0;0;5.2072;1
1999-08-25 00:00:00;347.0;0;4.4758;1
1999-08-26 00:00:00;350.0;0;1.9787;1
1999-08-27 00:00:00;359.0;0;4.6713;1
1999-08-28 00:00:00;353.0;0;4.1567;1
1999-08-29 00:00:00;354.0;0;2.5846;1
1999-08-30 00:00:00;354.0;0;2.3809;1
1999-08-31 00:00:00;368.0;0;1.3588;1
1999-09-01 00:00:00;380.0;0;1.3199;1
1999-09-02 00:00:00;383.0;0;3.5588;1
1999-09-03 00:00:00;382.0;0;3.8209;1
1999-09-04 00:00:00;382.0;0;4.2142;1
1999-09-05 00:00:00;383.0;0;3.6617;1
1999-09-06 00:00:00;385.0;0;1.9121;1
1999-09-07 00:00:00;385.0;0;3.0533;1
1999-09-08 00:00:00;381.0;0;3.4089;1
1999-09-09 00:00:00;386.0;0;3.5074;1
1999-09-10 00:00:00;384.0;0;0.6343;1
1999-09-11 00:00:00;395.0;0;0.6863;1
1999-09-12 00:00:00;400.0;0;1.6135;1
1999-09-13 00:00:00;404.0;0;3.7504;1
1999-09-14 00:00:00;400.0;0;2.3279;1
1999-09-15 00:00:00;409.0;0;2.06;1
1999-09-16 00:00:00;410.0;0;2.402;1
1999-09-17 00:00:00;411.0;0;2.4858;1
1999-09-18 00:00:00;408.0;0;2.9079;1
1999-09-19 00:00:00;412.0;0;1.6077;1
1999-09-20 00:00:00;414.0;0;6.7229;1
1999-09-21 00:00:00;418.0;0;4.6078;1
1999-09-22 00:00:00;414.0;0;9.811;1
1999-09-23 00:00:00;415.0;0;3.1566;1
1999-09-24 00:00:00;410.0;0;4.7231;1
1999-09-25 00:00:00;406.0;0;2.5794;1
1999-09-26 00:00:00;407.0;0;5.7109;1
1999-09-27 00:00:00;404.0;0;4.2276;1
1999-09-28 00:00:00;405.0;0;3.7452;1
1999-09-29 00:00:00;414.0;0;9.4341;1
1999-09-30 00:00:00;457.0;0;3.2173;1
1999-10-01 00:00:00;517.0;0;10.2935;1
1999-10-02 00:00:00;497.0;0;21.2231;1
1999-10-03 00:00:00;483.0;0;23.5733;1
1999-10-04 00:00:00;455.0;0;25.834;1
1999-10-07 00:00:00;393.0;0;12.5965;1
1999-10-08 00:00:00;412.0;0;16.6145;1
1999-10-09 00:00:00;439.0;0;20.3307;1
1999-10-10 00:00:00;420.0;0;20.9115;1
1999-10-11 00:00:00;429.0;0;12.0535;1
1999-10-12 00:00:00;435.0;0;18.1855;1
1999-10-13 00:00:00;395.0;0;13.5085;1
1999-10-14 00:00:00;399.0;0;12.2558;1
1999-10-15 00:00:00;388.0;0;11.5036;1
1999-10-16 00:00:00;389.0;0;8.7657;1
1999-10-17 00:00:00;384.0;0;9.095;1
1999-10-18 00:00:00;381.0;0;9.5115;1
1999-10-19 00:00:00;384.0;0;8.6869;1
1999-10-20 00:00:00;381.0;0;10.62;1
1999-10-21 00:00:00;370.0;0;10.019;1
1999-10-22 00:00:00;383.0;0;6.6447;1
1999-10-23 00:00:00;389.0;0;6.2472;1
1999-10-24 00:00:00;388.0;0;10.2117;1
1999-10-25 00:00:00;377.0;0;7.8637;1
1999-10-26 00:00:00;396.0;0;4.5579;1
1999-10-27 00:00:00;388.0;0;11.2189;1
1999-10-28 00:00:00;392.0;0;7.4355;1
1999-10-29 00:00:00;379.0;0;11.5252;1
1999-10-30 00:00:00;367.0;0;4.9196;1
1999-10-31 00:00:00;394.0;0;1.7263;1
1999-11-01 00:00:00;437.0;0;5.9227;1
1999-11-02 00:00:00;454.0;0;4.5787;1
1999-11-03 00:00:00;441.0;0;12.9259;1
1999-11-04 00:00:00;386.0;0;10.5496;1
1999-11-05 00:00:00;367.0;0;8.6739;1
1999-11-06 00:00:00;395.0;0;0.0172;1
1999-11-07 00:00:00;417.0;0;13.0881;1
1999-11-08 00:00:00;374.0;0;8.0313;1
1999-11-09 00:00:00;379.0;0;7.9626;1
1999-11-10 00:00:00;374.0;0;8.3979;1
1999-11-11 00:00:00;376.0;0;8.0986;1
1999-11-12 00:00:00;378.0;0;7.7436;1
1999-11-13 00:00:00;376.0;0;7.9889;1
1999-11-14 00:00:00;373.0;0;6.7676;1
1999-11-15 00:00:00;380.0;0;4.4049;1
1999-11-16 00:00:00;404.0;0;3.1992;1
1999-11-17 00:00:00;424.0;0;4.7228;1
1999-11-18 00:00:00;442.0;0;10.1444;1
1999-11-19 00:00:00;432.0;0;13.993;1
1999-11-20 00:00:00;410.0;0;12.7036;1
1999-11-21 00:00:00;418.0;0;10.1167;1
1999-11-22 00:00:00;423.0;0;9.3116;1
1999-11-23 00:00:00;419.0;0;9.9046;1
1999-11-24 00:00:00;416.0;0;9.1404;1
1999-11-25 00:00:00;413.0;0;13.5891;1
1999-11-26 00:00:00;401.0;0;14.1171;1
1999-11-27 00:00:00;422.0;0;7.3899;1
1999-11-28 00:00:00;420.0;0;14.307;1
1999-11-29 00:00:00;422.0;0;6.3979;1
1999-11-30 00:00:00;408.0;0;11.0272;1
1999-12-01 00:00:00;467.0;0;-0.0022;1
1999-12-02 00:00:00;508.0;0;16.0209;1
1999-12-03 00:00:00;547.0;0;7.4698;1
1999-12-04 00:00:00;560.0;0;43.9824;1
1999-12-05 00:00:00;487.0;0;69.2454;1
1999-12-06 00:00:00;494.0;0;22.7518;1
1999-12-07 00:00:00;521.0;0;38.3213;1
1999-12-08 00:00:00;519.0;0;42.6875;1
1999-12-09 00:00:00;521.0;0;30.8328;1
1999-12-10 00:00:00;532.0;0;37.8316;1
1999-12-11 00:00:00;476.0;0;43.4876;1
1999-12-12 00:00:00;513.0;0;62.7026;1
1999-12-13 00:00:00;505.0;0;48.7997;1
1999-12-14 00:00:00;462.0;0;45.4605;1
1999-12-15 00:00:00;443.0;0;31.6885;1
1999-12-16 00:00:00;424.0;0;19.4478;1
1999-12-17 00:00:00;475.0;0;6.9713;1
1999-12-18 00:00:00;523.0;0;32.4394;1
1999-12-19 00:00:00;457.0;0;32.3232;1
1999-12-20 00:00:00;434.0;0;29.0382;1
1999-12-21 00:00:00;391.0;0;26.3033;1
1999-12-22 00:00:00;380.0;0;18.7099;1
1999-12-23 00:00:00;392.0;0;15.7479;1
1999-12-24 00:00:00;437.0;0;33.2674;1
2000-01-18 00:00:00;420.0;0;13.209;1
2000-01-19 00:00:00;372.0;0;14.0073;1
2000-01-20 00:00:00;384.0;0;6.6593;1
2000-01-21 00:00:00;415.0;0;11.2616;1
2000-01-22 00:00:00;402.0;0;10.0631;1
2000-01-23 00:00:00;391.0;0;13.2293;1
2000-01-24 00:00:00;372.0;0;9.6033;1
2000-01-25 00:00:00;381.0;0;6.9933;1
2000-01-26 00:00:00;386.0;0;9.0984;1
2000-01-27 00:00:00;384.0;0;7.4187;1
2000-01-28 00:00:00;424.0;0;4.7749;1
2000-01-29 00:00:00;513.0;0;2.2413;1
2000-01-30 00:00:00;580.0;0;25.976;1
2000-01-31 00:00:00;521.0;0;37.8016;1
2000-02-01 00:00:00;489.0;0;34.5735;1
2000-02-02 00:00:00;484.0;0;20.3059;1
2000-02-03 00:00:00;483.0;0;32.1636;1
2000-02-04 00:00:00;437.0;0;17.8276;1
2000-02-05 00:00:00;446.0;0;21.7392;1
2000-02-06 00:00:00;424.0;0;18.1067;1
2000-02-07 00:00:00;432.0;0;9.6027;1
2000-02-08 00:00:00;481.0;0;15.0622;1
2000-02-09 00:00:00;510.0;0;16.727;1
2000-02-10 00:00:00;467.0;0;26.9665;1
2000-02-11 00:00:00;480.0;0;18.6644;1
2000-02-12 00:00:00;447.0;0;15.9213;1
2000-02-13 00:00:00;495.0;0;15.8557;1
2000-02-14 00:00:00;455.0;0;31.1831;1
2000-02-15 00:00:00;443.0;0;19.1513;1
2000-02-16 00:00:00;459.0;0;15.0245;1
2000-02-17 00:00:00;462.0;0;33.4858;1
2000-02-18 00:00:00;418.0;0;26.2834;1
2000-02-19 00:00:00;411.0;0;22.8234;1
2000-02-20 00:00:00;389.0;0;22.4243;1
2000-02-21 00:00:00;373.0;0;15.0617;1
2000-02-22 00:00:00;394.0;0;14.7137;1
2000-02-23 00:00:00;386.0;0;16.1083;1
2000-02-24 00:00:00;395.0;0;11.5185;1
2000-02-25 00:00:00;418.0;0;11.2319;1
2000-02-26 00:00:00;404.0;0;14.4071;1
2000-02-27 00:00:00;393.0;0;10.5298;1
2000-02-28 00:00:00;452.0;0;1.9372;1
2000-02-29 00:00:00;482.0;0;11.0262;1
2000-03-01 00:00:00;489.0;0;9.5737;1
2000-03-02 00:00:00;469.0;0;19.7423;1
2000-03-03 00:00:00;528.0;0;4.312;1
2000-03-04 00:00:00;519.0;0;49.2426;1
2000-03-05 00:00:00;440.0;0;30.1596;1
2000-03-06 00:00:00;442.0;0;9.3939;1
2000-03-07 00:00:00;467.0;0;24.5258;1
2000-03-08 00:00:00;458.0;0;22.4642;1
2000-03-09 00:00:00;479.0;0;29.3876;1
2000-03-10 00:00:00;418.0;0;26.0039;1
2000-03-11 00:00:00;432.0;0;16.7432;1
2000-03-12 00:00:00;420.0;0;25.6588;1
2000-03-13 00:00:00;401.0;0;16.2656;1
2000-03-14 00:00:00;416.0;0;16.1948;1
2000-03-15 00:00:00;453.0;0;17.7108;1
2000-03-16 00:00:00;413.0;0;23.143;1
2000-03-17 00:00:00;396.0;0;18.6896;1
2000-03-18 00:00:00;378.0;0;17.1908;1
2000-03-19 00:00:00;364.0;0;14.2097;1
2000-03-20 00:00:00;375.0;0;13.2333;1
2000-03-21 00:00:00;374.0;0;10.4093;1
2000-03-22 00:00:00;385.0;0;11.0337;1
2000-03-23 00:00:00;374.0;0;12.5516;1
2000-03-24 00:00:00;361.0;0;10.6461;1
2000-03-25 00:00:00;375.0;0;8.3229;1
2000-03-26 00:00:00;386.0;0;9.5285;1
2000-03-27 00:00:00;384.0;0;14.3721;1
2000-03-28 00:00:00;358.0;0;11.7227;1
2000-03-29 00:00:00;362.0;0;9.102;1
2000-03-30 00:00:00;366.0;0;8.6896;1
2000-03-31 00:00:00;393.0;0;5.4863;1
2000-04-01 00:00:00;463.0;0;0.0;1
2000-04-02 00:00:00;499.0;0;0.0;1
2000-04-03 00:00:00;520.0;0;0.0;1
2000-04-04 00:00:00;536.0;0;0.0;1
2000-04-05 00:00:00;509.0;0;27.9122;1
2000-04-06 00:00:00;391.0;0;11.6062;1
2000-04-07 00:00:00;375.0;0;10.3488;1
2000-04-08 00:00:00;366.0;0;7.5705;1
2000-04-09 00:00:00;375.0;0;7.6628;1
2000-04-10 00:00:00;373.0;0;6.6522;1
2000-04-11 00:00:00;384.0;0;6.0665;1
2000-04-12 00:00:00;390.0;0;7.5165;1
2000-04-13 00:00:00;394.0;0;7.5262;1
2000-04-14 00:00:00;397.0;0;7.2989;1
2000-04-15 00:00:00;374.0;0;12.4823;1
2000-04-16 00:00:00;377.0;0;5.1117;1
2000-04-17 00:00:00;393.0;0;7.2101;1
2000-04-18 00:00:00;400.0;0;9.3548;1
2000-04-19 00:00:00;376.0;0;8.68;1
2000-04-20 00:00:00;383.0;0;6.6511;1
2000-04-21 00:00:00;402.0;0;6.8358;1
2000-04-22 00:00:00;399.0;0;7.9183;1
2000-04-23 00:00:00;406.0;0;7.8872;1
2000-04-24 00:00:00;398.0;0;9.5168;1
2000-04-25 00:00:00;394.0;0;8.0514;1
2000-04-26 00:00:00;395.0;0;7.8349;1
2000-04-27 00:00:00;400.0;0;7.9381;1
2000-04-28 00:00:00;396.0;0;6.0566;1
2000-04-29 00:00:00;426.0;0;4.2754;1
2000-04-30 00:00:00;413.0;0;10.9011;1
2000-05-01 00:00:00;399.0;0;8.0742;1
2000-05-02 00:00:00;393.0;0;7.9222;1
2000-05-03 00:00:00;394.0;0;6.29;1
2000-05-04 00:00:00;394.0;0;7.2233;1
2000-05-05 00:00:00;392.0;0;7.5807;1
2000-05-06 00:00:00;386.0;0;7.2434;1
2000-05-07 00:00:00;378.0;0;6.3235;1
2000-05-08 00:00:00;375.0;0;4.9741;1
2000-05-09 00:00:00;380.0;0;4.0912;1
2000-05-10 00:00:00;389.0;0;4.1124;1
2000-05-11 00:00:00;396.0;0;4.7768;1
2000-05-12 00:00:00;392.0;0;6.2996;1
2000-05-13 00:00:00;385.0;0;5.6136;1
2000-05-14 00:00:00;390.0;0;5.276;1
2000-05-15 00:00:00;393.0;0;5.7426;1
2000-05-16 00:00:00;394.0;0;5.3221;1
2000-05-17 00:00:00;402.0;0;2.7286;1
2000-05-18 00:00:00;420.0;0;4.8286;1
2000-05-19 00:00:00;411.0;0;8.1254;1
2000-05-20 00:00:00;391.0;0;7.2413;1
2000-05-21 00:00:00;369.0;0;6.4761;1
2000-05-22 00:00:00;361.0;0;3.2153;1
2000-05-23 00:00:00;382.0;0;2.4617;1
2000-05-24 00:00:00;397.0;0;4.0586;1
2000-05-25 00:00:00;386.0;0;3.9508;1
2000-05-26 00:00:00;406.0;0;3.5039;1
2000-05-27 00:00:00;393.0;0;3.5607;1
2000-05-28 00:00:00;412.0;0;4.5395;1
2000-05-29 00:00:00;424.0;0;1.5366;1
2000-05-30 00:00:00;403.0;0;8.8123;1
2000-05-31 00:00:00;389.0;0;4.4968;1
2000-06-01 00:00:00;391.0;0;4.6221;1
2000-06-02 00:00:00;394.0;0;4.2682;1
2000-06-03 00:00:00;390.0;0;6.5184;1
2000-06-04 00:00:00;381.0;0;3.8288;1
2000-06-05 00:00:00;398.0;0;6.2411;1
2000-06-06 00:00:00;390.0;0;5.6584;1
2000-06-07 00:00:00;399.0;0;6.6203;1
2000-06-08 00:00:00;392.0;0;7.0348;1
2000-06-09 00:00:00;399.0;0;6.1651;1
2000-06-10 00:00:00;408.0;0;4.838;1
2000-06-11 00:00:00;396.0;0;6.7385;1
2000-06-12 00:00:00;398.0;0;3.2404;1
2000-06-13 00:00:00;400.0;0;5.8254;1
2000-06-14 00:00:00;387.0;0;6.06;1
2000-06-15 00:00:00;370.0;0;4.3047;1